Location: Newark
(44.2003°N, 3.2583°E)
Time: 23:28:00
(UTC+00:00)

ISS - Visible Passes

Search period start: 23 September 2020 00:00
Search period end: 03 October 2020 00:00
Orbit: 419 x 420 km, 51.6° (Epoch: 24 September)

Date Brightness Start Highest point End Pass type
(mag) Time Alt. Az. Time Alt. Az. Time Alt. Az.
23 Sep -2.1 18:54:47 10° W 18:57:49 30° NNW 19:00:24 13° NE visible
23 Sep -0.6 20:32:34 10° NW 20:33:22 14° NW 20:33:22 14° NW visible
24 Sep -2.5 18:07:07 10° W 18:10:19 38° NNW 18:13:31 10° NE visible
24 Sep -1.7 19:45:01 10° NW 19:47:45 22° N 19:47:47 22° N visible
25 Sep -1.8 18:57:24 10° WNW 19:00:11 23° N 19:02:10 14° NE visible
25 Sep -0.4 20:34:43 10° NW 20:35:08 12° NW 20:35:08 12° NW visible
26 Sep -1.9 18:09:43 10° WNW 18:12:36 26° N 18:15:30 10° NE visible
26 Sep -1.7 19:47:17 10° NW 19:49:29 23° N 19:49:29 23° N visible
27 Sep -1.9 18:59:47 10° NW 19:02:33 23° N 19:03:50 18° NE visible
27 Sep -0.2 20:36:38 10° NW 20:36:48 11° NW 20:36:48 11° NW visible
28 Sep -1.8 18:12:12 10° NW 18:14:57 22° N 18:17:40 10° NE visible
28 Sep -1.7 19:49:15 10° NW 19:51:08 25° NNW 19:51:08 25° NNW visible
29 Sep -2.4 19:01:50 10° NW 19:04:50 28° NNE 19:05:29 26° NE visible
30 Sep -2.1 18:14:22 10° NW 18:17:14 25° N 18:19:50 11° ENE visible
30 Sep -1.6 19:51:06 10° NW 19:52:48 27° NW 19:52:48 27° NW visible
01 Oct -3.3 19:03:41 10° NW 19:06:58 47° NNE 19:07:11 46° NE visible
02 Oct -2.8 18:16:16 10° NW 18:19:25 35° NNE 18:21:37 16° E visible
02 Oct -1.4 19:53:02 10° WNW 19:54:35 23° W 19:54:35 23° W visible
